Meteo Giornale » Osservazioni meteo Francia » Pau
ore: 21:00 - Osservazioni Meteo Pau
Lat. 43° 23' N Lon. 0° 25' W Alt. 188 metri s.l.m.
22 °C
Molto Nuvoloso
Temp. 24 Ore
19 °C
26 °C
Ovest/Nord-Ovest
7.4 Km/h
Dew point 16 °C
Umidità 68 %
Visibilità 10 Km
Il sole sorge alle ore 07:24
Il sole tramonta alle ore 20:39
| Data e Ora | Cielo e Fenomeni | T °C | DP °C | Um. % | Pres. hPa | Vis. km | Vento km/h | |
|---|---|---|---|---|---|---|---|---|
| Oggi h: 21:00 | Molto Nuvoloso | 22 | 16 | 68 | 1022 | 10 | O/NO 7.4 | |
| Oggi h: 20:30 | Molto Nuvoloso | 23 | 16 | 64 | 1022 | 10 | O/NO 7.4 | |
| Oggi h: 20:00 | Molto Nuvoloso | 23 | 16 | 64 | 1022 | 10 | O 7.4 | |
| Oggi h: 19:30 | Coperto | 24 | 16 | 60 | 1022 | 10 | SO 7.4 | |
| Oggi h: 19:00 | Coperto | 24 | 15 | 57 | 1022 | 10 | O/SO 9.3 | |
| Oggi h: 18:30 | Coperto | 24 | 15 | 57 | 1022 | 10 | SO 9.3 | |
| Oggi h: 18:00 | Coperto | 24 | 15 | 57 | 1022 | 10 | O/SO 9.3 | |
| Oggi h: 17:30 | Coperto | 24 | 15 | 57 | 1022 | 10 | O/SO 11.1 | |
| Oggi h: 17:00 | Coperto | 25 | 15 | 53 | 1022 | 10 | O/SO 9.3 | |
| Oggi h: 16:30 | Coperto | 25 | 15 | 53 | 1022 | 10 | O 11.1 | |
| Oggi h: 16:00 | Coperto | 25 | 14 | 50 | 1022 | 10 | O/NO 7.4 | |
| Oggi h: 15:30 | Coperto | 25 | 13 | 47 | 1022 | 10 | N 5.5 | |
| Oggi h: 15:00 | Molto Nuvoloso | 26 | 13 | 44 | 1022 | 10 | N/NE 7.4 | |
| Oggi h: 14:30 | Molto Nuvoloso | 25 | 13 | 47 | 1023 | 10 | N 5.5 | |
| Oggi h: 14:00 | Molto Nuvoloso | 26 | 13 | 44 | 1023 | 10 | N 7.4 | |
| Oggi h: 13:30 | Molto Nuvoloso | 24 | 14 | 53 | 1023 | 10 | O/SO 7.4 | |
| Oggi h: 13:00 | Molto Nuvoloso | 24 | 14 | 53 | 1023 | 10 | N 3.7 | |
| Oggi h: 12:30 | Coperto | 23 | 14 | 56 | 1023 | 10 | N 5.5 | |
| Oggi h: 12:00 | Molto Nuvoloso | 23 | 14 | 56 | 1023 | 10 | N 5.5 | |
| Oggi h: 11:30 | Molto Nuvoloso | 22 | 14 | 60 | 1023 | 10 | N 5.5 | |
| Oggi h: 11:00 | Molto Nuvoloso | 21 | 15 | 68 | 1023 | 10 | O/SO 7.4 | |
| Oggi h: 10:30 | Coperto | 23 | 17 | 68 | 1023 | 10 | N 5.5 | |
| Oggi h: 10:00 | Molto Nuvoloso | 21 | 17 | 77 | 1023 | 10 | N 3.7 | |
| Oggi h: 09:30 | Molto Nuvoloso | 19 | 16 | 82 | 1023 | 10 | N 5.5 | |
| Oggi h: 09:00 | Molto Nuvoloso | 19 | 16 | 82 | 1022 | 10 | N 5.5 | |
| Oggi h: 08:30 | Molto Nuvoloso | 19 | 16 | 82 | 1022 | 10 | N 3.7 | |
| Oggi h: 08:00 | Coperto | 19 | 16 | 82 | 1022 | 10 | N 3.7 | |
| Oggi h: 07:30 | Coperto | 19 | 16 | 82 | 1022 | 10 | N 3.7 | |
| Oggi h: 07:00 | Coperto | 19 | 16 | 82 | 1021 | 10 | N 1.8 | |
| Oggi h: 06:30 | Coperto | 19 | 16 | 82 | 1021 | 10 | N 3.7 | |
| Oggi h: 06:00 | Coperto | 19 | 15 | 77 | 1022 | 10 | N 3.7 | |
| Oggi h: 05:30 | Coperto | 19 | 16 | 82 | 1022 | 10 | SO 7.4 | |
| Oggi h: 05:00 | Coperto | 19 | 16 | 82 | 1022 | 10 | N 5.5 | |
| Oggi h: 04:30 | Coperto | 19 | 16 | 82 | 1022 | 10 | N 5.5 | |
| Oggi h: 04:00 | Coperto | 19 | 16 | 82 | 1022 | 10 | S/SO 7.4 | |
| Oggi h: 03:30 | Coperto | 19 | 16 | 82 | 1022 | 10 | N 5.5 | |
| Oggi h: 03:00 | Coperto | 19 | 16 | 82 | 1022 | 10 | SO 9.3 | |
| Oggi h: 02:30 | Coperto | 19 | 16 | 82 | 1022 | 10 | SO 7.4 | |
| Oggi h: 02:00 | Coperto | 19 | 16 | 82 | 1022 | 10 | O/SO 9.3 | |
| Oggi h: 01:30 | Coperto | 19 | 17 | 88 | 1022 | 10 | SO 9.3 | |
| Oggi h: 01:00 | Coperto | 20 | 17 | 82 | 1022 | 10 | SO 9.3 | |
| Oggi h: 00:30 | Coperto | 20 | 17 | 82 | 1022 | 10 | S/SO 9.3 | |
| Oggi h: 00:00 | Coperto | 20 | 17 | 82 | 1021 | 10 | O/SO 13 | |
| Ieri h: 23:30 | Coperto | 20 | 16 | 77 | 1021 | 10 | O 11.1 | |
| Ieri h: 23:00 | Coperto | 20 | 16 | 77 | 1021 | 10 | O 9.3 | |
| Ieri h: 22:30 | Coperto | 21 | 16 | 73 | 1021 | 10 | O 13 | |
| Ieri h: 22:00 | Coperto | 21 | 17 | 77 | 1020 | 10 | O/NO 13 | |



